COSMOS 1536

Last updated on Mon Sep 21 2026 00:02:08 GMT+0000 (Coordinated Universal Time)

1 14699U 84013A 26263.46889987 .00003700 00000+0 14257-3 0 9994 2 14699 82.5412 273.8805 0012419 323.1302 36.9081 15.25957894302307
UTC large
Height (km)
Speed (km/s)
/
Latitude / Longitude
Inclination (degrees)
Orbital Period (minutes)
Azimuth
Elevation
Range (km)
Doppler Factor

Next 0 passes for location: London (51.5072 / 0.1276)

No passes found over London.
COSMOS 1536